Terminal Aerodrome Forecast
Issued by NWS

Home | Current Version | Previous Version | Text Only | Print | Product List | Glossary On
Versions: 1 2 3 4 5 6 7 8 9 10 11 12 13 14 15 16 17 18 19 20 21 22
000
FTUS44 KLIX 310500
TAFHDC
TAF
KHDC 310540Z 3106/0106 00000KT P6SM SKC
     FM311400 07003KT P6SM BKN090
     FM311700 35005KT P6SM BKN090 PROB30 3118/3123 VRB14KT 2SM TSRA
      BKN050CB
     FM312300 00000KT P6SM BKN090=

USA.gov is the U.S. government's official web portal to all federal, state and local government web resources and services.